Location: Bu�n Treun
(12.1333°N, 108.3167°E)
Time: 23:55:24
(UTC+00:00)

Cosmos 2084 Rocket - Pass Details

Date: 13 July 2020
Orbit: 553 x 627 km, 62.8° (Epoch: 14 August)

Event Time Altitude Azimuth Distance (km) Brightness Sun altitude
Exits shadow 21:46:07 13° 226° (SW) 1,642 5.1 -10.5°
Maximum altitude 21:49:33 43° 296° (WNW) 779 3.8 -9.8°
Drops below altitude 10° 21:53:30 10° 9° (N) 1,846 6.5 -8.9°
Sets 21:55:49 0° 15° (NNE) 2,751 7.5 -8.4°
